GFSMW_925_thetae_159.txt.gz
Theta_e
348 349 350 350 351 352 353 353 353 353 353 352 352 352 353 354 354 352 349 349 349 350 350 350 350 348 350 351 353 354 354 349 348 344 336 335 338 338 342 336 338 338 340
351 350 350 351 350 351 353 353 353 354 351 353 353 353 354 353 355 354 351 349 347 349 350 350 350 350 353 353 354 354 351 349 346 340 336 335 334 340 334 339 335 340 337
351 352 350 350 351 352 353 353 351 353 351 352 354 354 354 354 353 353 353 353 348 351 353 352 351 352 347 347 345 346 346 341 341 341 338 335 336 336 335 335 337 337 337
351 352 350 350 350 351 353 353 351 351 351 351 354 355 354 355 353 353 353 354 351 352 353 353 352 348 339 335 339 342 341 341 336 338 340 340 339 338 338 334 334 335 333
349 350 349 348 349 350 352 353 353 351 351 352 352 354 355 354 354 355 353 352 352 352 353 352 345 339 338 334 332 337 338 338 338 338 337 337 337 338 338 338 332 330 329
347 347 346 347 349 350 351 353 354 351 351 352 352 354 354 355 355 355 355 354 352 352 352 347 342 337 334 332 334 333 338 338 338 338 338 336 335 334 334 334 330 328 324
347 348 348 347 348 349 351 352 354 354 354 354 353 353 354 354 354 356 356 355 352 351 351 344 339 335 331 329 330 335 337 338 338 338 334 333 332 331 330 328 326 324 323
346 347 347 346 347 348 350 352 353 354 354 352 351 352 350 353 355 355 355 355 353 354 349 345 339 333 329 330 333 337 338 338 336 334 333 330 327 326 324 324 324 327 326
346 346 345 345 347 348 350 351 352 353 352 350 351 353 351 354 355 355 353 354 353 351 346 340 337 330 330 333 336 338 338 334 333 331 328 324 321 321 322 323 324 325 328
345 345 347 346 346 347 348 350 351 352 352 348 352 351 352 353 356 356 354 355 350 337 342 337 331 333 331 336 336 337 333 331 329 326 324 322 320 322 324 324 325 324 325
343 344 344 344 345 345 347 349 351 352 353 353 350 355 355 356 357 354 355 352 342 335 337 333 332 329 334 337 334 329 329 328 327 325 321 321 324 325 325 325 325 325 324
342 344 344 343 344 344 346 348 351 352 353 354 354 356 356 357 356 353 354 347 339 337 339 333 330 331 337 335 330 326 328 328 326 322 321 320 322 325 325 325 325 324 324
346 345 345 346 345 345 346 349 351 351 353 354 356 357 358 356 354 354 351 343 338 336 335 333 330 336 338 333 327 325 329 327 324 321 320 319 323 325 325 325 324 324 324
347 347 349 353 349 348 348 349 350 352 354 356 357 358 358 356 354 355 345 340 336 336 337 333 333 338 337 330 329 329 329 326 323 322 320 319 323 325 325 325 324 324 323
347 348 350 352 350 350 350 350 352 354 356 358 359 359 357 353 353 348 345 343 340 338 336 333 338 337 333 329 329 329 326 323 321 321 319 319 324 322 322 322 322 321 320
347 347 347 349 351 351 351 352 355 357 359 359 358 358 356 351 349 346 344 344 341 337 333 336 336 335 331 327 327 327 325 323 322 320 318 323 323 322 321 320 319 318 318
347 348 348 348 349 351 353 354 356 357 357 358 357 355 351 346 346 345 342 340 336 334 335 336 336 335 331 326 328 327 324 323 321 317 320 323 323 322 321 320 318 320 317
347 348 347 347 348 351 354 356 356 355 356 356 353 350 348 347 344 341 338 336 334 333 334 336 337 334 333 327 328 327 323 321 317 317 321 323 321 321 314 315 318 319 316
348 349 346 347 347 349 353 354 353 353 353 352 351 349 348 346 342 339 337 336 334 334 336 337 336 334 332 328 327 325 322 317 316 317 321 320 319 314 314 315 317 316 315
349 347 347 347 348 348 350 351 350 350 351 350 349 347 345 344 342 340 338 335 335 335 336 336 333 331 333 329 326 321 316 315 314 316 320 318 314 312 312 311 313 312 313
346 348 348 349 348 348 348 348 347 349 347 345 345 345 345 344 342 340 337 335 335 336 336 334 334 333 330 325 321 312 313 313 313 315 317 317 313 311 310 311 309 309 311
346 345 347 346 345 345 345 346 346 344 344 344 343 344 344 342 340 338 335 335 335 336 336 335 333 329 326 321 312 310 309 309 314 316 315 313 310 311 310 310 312 313 313
344 345 347 347 347 348 349 348 343 342 341 341 342 343 343 341 338 337 335 335 335 334 335 335 334 331 324 315 310 309 308 308 312 311 308 306 305 309 310 310 308 309 309
327 326 327 328 332 336 340 342 340 340 340 341 341 341 341 338 336 335 335 334 334 335 336 333 332 329 319 313 312 313 312 310 310 309 307 302 302 302 306 308 308 308 308
326 326 328 329 330 331 335 338 338 340 341 340 339 338 334 334 334 333 334 334 333 332 331 328 329 325 317 313 311 311 311 309 307 307 304 302 302 302 302 305 306 306 307
327 327 328 328 328 330 331 334 333 338 340 340 337 335 332 332 330 328 325 325 324 323 323 323 326 317 312 310 310 309 307 305 304 304 302 300 299 299 300 302 304 305 305

GFSMW_925_thetae_162.txt.gz
Theta_e
345 347 349 350 351 352 353 355 355 355 355 353 352 352 353 353 354 353 354 356 354 355 356 353 351 353 352 356 356 350 342 342 342 338 333 333 336 338 336 335 333 334 336
346 345 348 350 351 351 353 354 355 356 356 354 353 352 352 351 351 351 354 356 355 355 355 357 355 355 354 355 355 350 340 334 337 338 335 335 334 337 334 337 337 339 338
347 347 347 349 350 351 354 355 356 355 357 354 355 356 356 356 354 353 352 352 355 356 357 359 359 358 358 352 350 343 340 335 334 338 339 340 338 337 336 334 337 336 336
347 349 349 350 351 352 353 355 357 357 357 357 355 355 353 352 353 354 352 353 355 356 358 360 359 358 351 348 346 340 339 339 335 338 338 338 339 341 340 334 332 332 331
346 348 349 350 351 351 352 354 357 358 358 358 357 356 357 352 355 355 356 357 357 358 356 357 354 351 349 348 343 339 338 336 340 337 337 337 336 334 336 336 331 329 327
348 346 346 348 349 350 351 353 356 359 360 359 360 358 356 357 355 355 356 355 354 354 355 354 352 350 346 343 340 339 340 341 341 339 337 334 332 331 330 331 329 327 324
351 349 348 347 349 349 350 351 354 359 360 360 359 360 359 359 359 359 357 355 353 353 352 350 349 344 342 341 340 340 341 341 340 338 334 331 329 328 328 327 326 326 325
350 351 350 348 347 349 350 352 353 358 361 360 360 360 359 358 358 358 356 357 357 354 349 348 346 343 342 340 339 339 340 340 337 334 333 330 326 323 323 323 324 328 327
348 349 350 349 348 348 349 352 354 358 360 360 360 360 360 359 356 356 359 359 358 353 349 344 334 343 342 340 339 339 340 338 334 331 329 326 323 322 323 325 326 327 330
345 348 350 350 349 349 349 351 353 357 359 359 360 360 360 359 359 358 359 359 357 353 350 340 335 342 341 339 339 338 338 334 330 327 327 326 323 323 323 324 326 328 328
343 345 347 348 349 349 350 351 353 354 358 359 358 359 359 359 360 359 360 360 355 354 346 339 341 342 341 338 340 339 334 332 330 329 326 325 324 323 323 327 328 328 327
342 345 346 346 348 348 349 351 352 354 356 358 358 359 359 360 360 360 360 358 356 353 339 342 342 342 338 338 339 338 330 331 329 328 326 325 323 323 323 327 328 327 327
347 346 346 348 348 348 348 350 352 354 356 358 359 360 360 361 361 361 361 357 353 349 344 345 343 340 339 339 339 335 331 331 330 328 326 325 324 323 326 329 327 326 326
351 349 350 353 349 349 349 350 351 353 355 357 358 360 361 361 361 361 360 356 353 350 346 344 341 340 339 339 337 332 332 332 329 328 327 325 322 322 327 326 325 325 326
353 353 354 355 353 352 352 352 353 354 355 358 359 360 361 361 360 360 359 356 354 347 344 343 341 339 339 337 335 331 332 331 330 329 327 322 321 323 324 323 324 323 323
351 353 355 357 358 355 355 354 355 356 357 359 361 361 362 360 359 357 356 353 348 346 344 342 339 339 336 334 330 328 331 331 330 329 325 321 320 323 324 323 319 319 321
347 353 355 357 357 357 356 356 357 359 361 362 363 363 360 357 354 352 352 349 348 347 344 339 338 337 336 333 328 326 329 330 330 327 321 320 320 323 324 318 319 324 323
343 351 353 354 355 355 356 357 360 362 363 363 362 357 354 353 351 350 351 351 348 344 339 338 337 337 337 333 327 326 328 330 328 322 320 320 322 323 316 314 320 324 323
345 351 350 352 354 356 359 361 361 360 361 360 358 355 354 353 351 350 349 346 342 340 338 337 337 337 335 333 327 328 329 328 323 320 320 321 322 318 312 313 319 321 322
350 352 351 354 356 359 359 359 360 359 358 358 357 354 354 353 351 349 345 343 341 339 336 337 337 336 334 332 329 326 327 323 320 318 318 319 318 313 311 311 316 317 317
351 352 352 354 356 357 357 356 354 353 353 353 354 353 353 352 351 346 343 341 340 338 337 337 336 334 335 331 326 321 318 319 316 317 316 316 316 311 311 309 312 311 314
354 353 354 354 353 351 348 348 350 351 352 353 353 353 353 352 348 345 343 341 339 339 338 337 335 334 333 329 319 312 310 309 315 315 314 314 310 307 310 310 309 312 314
349 347 349 350 351 350 349 349 350 351 350 351 352 350 350 348 347 344 342 340 339 337 336 336 334 333 333 319 313 310 309 311 311 312 309 304 304 304 310 310 310 312 313
342 339 337 338 339 343 348 351 349 348 347 347 348 348 348 346 345 343 342 340 338 336 335 334 334 333 330 323 319 317 316 314 312 311 311 305 305 305 306 309 310 310 311
330 330 330 331 333 334 335 339 345 347 348 347 346 347 345 345 343 339 339 338 337 336 335 333 333 330 328 320 317 315 313 310 307 308 308 306 305 305 304 306 308 308 309
329 329 330 330 331 333 334 336 338 341 344 344 341 340 340 340 338 333 332 334 331 329 327 326 328 322 321 312 309 307 306 304 305 307 306 305 304 303 303 304 305 306 306

GFSMW_925_thetae_165.txt.gz
Theta_e
346 348 349 350 351 352 354 355 356 356 356 355 354 353 351 350 350 350 352 354 354 352 353 350 349 351 349 357 355 352 345 338 336 338 336 335 335 339 339 335 337 337 339
345 346 347 349 349 351 354 356 356 357 358 355 354 351 350 349 349 349 351 355 355 355 355 354 352 351 352 351 355 354 345 338 335 338 339 340 336 337 336 337 336 338 337
345 346 347 348 349 350 352 355 357 357 358 355 354 354 354 353 352 351 352 354 356 356 356 356 357 358 357 352 354 349 344 337 336 339 341 341 339 338 337 336 335 334 334
344 345 346 348 348 349 350 354 356 357 358 357 353 354 354 352 351 352 351 351 353 355 356 358 358 359 357 353 351 346 344 338 338 337 338 339 340 341 340 333 332 331 331
343 346 346 346 347 348 349 352 357 359 358 359 355 356 355 352 351 352 352 355 355 358 357 357 358 360 356 353 351 345 342 339 339 338 339 337 336 334 333 334 331 329 328
344 346 347 347 347 347 348 350 357 362 362 362 360 360 358 356 353 352 353 353 354 357 358 357 358 358 355 352 347 343 341 344 343 343 340 334 332 331 330 331 330 329 326
347 345 348 351 350 349 349 350 356 363 364 363 363 362 362 363 360 360 355 353 351 351 356 357 357 354 352 347 346 344 343 343 342 342 338 332 330 328 327 326 325 326 325
350 347 346 347 349 349 351 351 353 362 365 365 364 365 364 360 359 359 355 354 351 350 354 358 356 351 347 347 345 343 342 342 342 340 336 333 329 326 325 324 326 329 328
348 350 348 345 347 349 351 351 353 360 364 365 366 366 365 364 359 358 361 357 356 353 357 357 353 348 347 347 344 343 342 342 341 336 333 331 327 325 325 325 325 326 332
345 347 351 351 346 346 348 349 351 357 363 364 366 367 367 366 364 362 361 360 358 359 359 354 349 347 347 346 344 342 341 343 337 332 330 331 328 327 326 324 324 326 329
341 343 347 349 350 346 346 348 350 354 362 363 363 365 366 365 366 364 363 361 361 363 361 354 350 346 347 346 344 344 342 338 335 333 332 330 329 328 327 324 325 326 327
338 340 343 346 349 350 348 347 350 353 359 363 364 365 366 365 366 365 364 363 364 365 360 353 349 347 347 344 344 343 340 335 334 332 331 331 329 328 326 324 325 326 328
344 345 344 346 350 350 351 352 352 353 357 362 365 367 367 367 365 366 365 364 364 363 360 353 347 348 346 344 343 342 339 334 333 333 331 330 330 328 325 325 326 326 326
345 350 349 355 353 354 354 355 355 354 357 361 363 365 365 366 365 366 365 364 365 361 355 349 346 348 345 344 343 340 337 334 333 332 331 331 329 325 322 326 325 326 325
344 350 353 355 361 359 356 356 355 356 358 361 363 365 365 364 365 364 363 363 360 359 356 350 349 347 345 343 341 338 335 334 334 333 332 330 326 321 322 324 325 322 322
341 347 354 355 359 357 359 357 357 359 359 362 363 363 364 365 364 364 363 363 359 355 353 350 349 346 343 340 336 335 333 333 333 333 331 330 324 323 322 324 321 318 321
337 343 354 361 362 357 358 357 358 359 362 363 363 364 365 367 365 363 361 358 355 351 350 349 347 344 342 333 333 331 328 331 332 332 331 326 323 324 324 322 317 321 324
337 340 350 357 359 359 359 358 359 361 362 364 365 367 367 363 361 360 356 354 351 350 347 347 344 342 339 335 335 329 330 332 332 332 327 324 324 323 321 315 318 321 323
340 343 344 355 358 359 360 360 362 364 365 366 366 362 361 359 357 354 355 353 350 350 347 344 342 340 338 336 332 327 330 331 332 328 325 322 321 322 316 313 317 320 320
342 346 350 355 358 359 360 364 365 365 365 364 361 359 358 357 356 355 355 352 350 345 343 340 339 339 338 336 331 327 330 329 328 324 322 319 318 315 311 311 315 317 316
351 352 352 355 358 361 364 364 363 362 360 360 359 359 359 357 355 354 353 347 345 343 340 339 339 339 336 336 332 328 325 325 322 320 320 317 312 309 308 310 314 311 312
354 353 355 361 362 362 361 360 359 355 355 356 357 357 357 355 355 350 348 346 344 342 340 340 338 336 336 336 329 322 314 313 316 318 316 312 306 304 306 310 310 311 314
357 358 359 359 358 355 355 355 355 355 355 356 357 357 354 351 350 347 346 344 343 342 340 339 337 336 336 326 322 313 310 313 313 315 312 308 306 307 308 309 310 311 311
355 354 354 353 354 352 352 354 353 354 353 353 353 353 352 350 350 347 346 344 342 341 338 337 337 336 335 327 318 316 318 317 316 312 314 309 307 307 307 309 310 310 310
347 344 342 343 343 345 348 350 352 352 352 351 351 351 348 348 346 340 341 341 338 337 338 337 336 336 334 323 322 321 317 311 308 309 311 309 308 307 307 307 308 307 307
335 336 335 335 336 336 339 341 344 346 346 346 348 349 348 344 341 335 331 335 334 335 334 332 330 329 327 320 317 309 306 305 307 310 309 309 308 307 307 307 307 306 306

GFSMW_925_thetae_168.txt.gz
Theta_e
349 350 350 351 352 354 357 356 357 356 356 356 356 355 354 353 352 350 351 356 355 354 352 351 351 352 351 351 355 355 350 342 338 335 339 340 339 339 334 336 337 336 339
348 350 351 352 353 355 356 358 358 359 356 358 356 356 353 352 350 350 351 352 353 353 354 353 352 351 352 353 353 354 349 343 338 340 340 347 341 336 334 338 336 336 334
346 350 352 352 352 355 357 359 359 359 359 358 357 354 356 351 354 352 353 354 355 355 356 355 356 355 357 354 354 352 348 341 338 340 341 347 344 341 339 337 334 332 334
346 349 352 351 351 353 356 358 360 361 361 356 359 356 355 356 353 352 352 351 354 355 356 356 356 359 358 357 352 351 346 338 339 339 341 338 340 345 343 335 333 331 330
344 347 350 351 350 351 354 356 361 360 361 361 357 357 357 355 352 353 352 352 355 355 356 357 357 356 360 357 353 348 343 340 341 342 340 340 338 334 337 335 332 328 327
343 346 347 349 350 350 351 355 360 361 361 362 357 358 358 354 356 353 354 356 354 357 357 358 359 360 360 356 352 344 344 341 344 342 343 340 335 334 332 332 329 329 326
345 347 350 350 350 350 350 352 357 362 362 362 363 355 358 361 353 359 355 355 355 356 359 357 359 359 358 353 348 345 343 343 344 343 342 337 334 330 328 328 329 328 327
348 347 350 350 350 350 350 351 355 362 364 364 365 364 359 363 367 359 358 360 353 354 355 358 358 358 356 350 348 346 343 343 343 343 338 337 333 329 328 328 328 329 327
349 348 348 351 351 351 350 351 353 361 365 366 366 367 367 363 362 362 359 355 359 356 356 357 358 358 352 349 347 345 343 342 343 341 336 333 332 329 328 328 327 326 328
346 350 349 348 351 352 352 352 353 361 365 367 367 367 367 368 365 363 360 362 357 355 359 358 358 355 350 348 347 345 344 343 343 337 333 333 332 330 330 328 327 326 328
344 346 350 349 348 349 352 353 354 354 363 368 368 368 369 368 369 366 366 360 364 359 361 360 357 351 348 347 346 344 345 343 341 336 334 333 332 331 330 329 328 325 326
340 343 346 351 349 348 348 350 353 355 356 366 368 368 369 370 370 370 367 366 364 364 363 362 357 349 346 346 347 345 345 343 338 335 333 333 332 331 331 329 325 325 327
341 345 349 354 353 351 348 348 351 352 355 359 367 367 369 369 371 370 370 367 367 365 364 363 356 351 347 346 346 345 344 340 336 334 334 332 332 332 329 324 325 327 328
348 347 361 367 367 353 353 350 350 351 354 359 366 367 369 369 371 370 369 368 367 366 364 361 354 349 346 349 346 345 342 339 335 334 333 333 332 329 325 324 325 326 322
350 356 363 367 372 364 357 356 354 352 355 360 366 369 369 370 370 370 369 369 366 366 363 358 355 349 349 347 346 345 339 336 335 335 334 332 332 327 323 324 324 320 319
346 347 361 366 368 369 364 360 360 358 358 362 367 368 369 369 369 368 368 366 365 364 359 354 351 350 348 347 346 341 337 335 334 334 334 333 329 324 325 324 322 317 320
345 349 362 367 371 364 361 360 360 363 363 366 367 368 369 369 368 366 364 362 363 360 358 353 352 349 348 338 339 337 333 331 332 333 333 331 327 325 324 322 318 317 321
344 351 355 367 365 361 361 360 361 363 366 367 367 368 369 368 368 366 366 364 361 356 354 352 349 347 344 335 334 333 328 331 333 333 333 328 325 325 322 317 314 316 320
350 354 346 363 364 362 362 362 363 365 366 367 368 368 369 369 367 365 362 360 356 353 352 349 347 344 339 336 335 330 330 332 332 333 328 326 325 321 316 310 313 316 316
348 352 342 355 366 365 365 365 366 367 368 368 371 368 366 363 359 357 358 356 354 351 349 346 344 341 340 335 333 328 330 330 329 326 324 320 315 310 305 307 312 316 311
354 346 353 363 366 366 365 368 369 370 369 367 363 360 359 356 354 354 356 354 350 346 345 342 341 339 339 337 334 328 328 325 322 321 321 315 308 305 306 310 311 310 311
355 354 363 365 365 365 368 369 367 367 364 362 360 357 356 354 355 354 350 347 346 345 342 342 341 339 337 336 335 330 324 319 314 318 316 311 307 308 308 308 310 311 311
359 362 368 369 368 367 367 367 363 361 360 358 360 359 357 356 352 349 348 348 347 344 343 341 339 337 335 334 332 327 319 314 315 317 312 311 308 308 308 309 310 309 308
366 364 365 364 361 359 359 359 359 360 360 360 357 354 354 352 351 349 348 347 345 344 342 341 339 336 334 327 323 321 319 318 316 313 313 312 309 309 309 309 309 307 307
359 358 358 358 357 356 355 356 355 356 355 355 354 352 352 352 350 346 345 345 343 342 340 339 337 335 335 326 322 322 318 312 309 310 312 310 309 309 308 309 308 307 308
353 352 352 353 354 355 355 356 356 355 354 353 352 351 351 346 343 338 333 335 335 336 336 336 336 335 334 321 322 319 313 307 308 311 311 310 309 309 308 308 309 307 306

GFSMW_925_thetae_171.txt.gz
Theta_e
346 351 351 350 351 350 349 352 351 351 349 349 351 351 353 350 350 349 350 353 349 351 349 350 348 353 350 352 350 353 353 341 341 336 336 337 340 337 333 337 336 337 335
347 348 351 352 356 355 353 355 355 355 351 351 352 352 351 352 352 348 349 354 354 352 352 352 350 350 355 354 354 353 350 345 338 341 340 338 338 334 333 335 336 333 331
347 348 349 351 354 357 354 353 354 355 357 355 356 356 356 352 354 352 350 355 354 353 350 351 353 350 356 354 353 353 350 345 337 338 341 340 337 338 338 337 335 331 330
344 347 349 352 353 355 356 356 354 355 357 356 356 355 355 357 356 352 354 353 353 353 353 353 354 353 354 354 356 353 350 344 339 337 341 339 340 339 337 331 329 327 326
342 347 350 351 352 354 356 356 356 356 357 358 356 358 355 353 353 354 351 352 354 354 355 354 354 354 357 360 357 351 347 342 339 342 340 339 340 333 331 327 327 325 326
342 345 349 350 351 353 356 357 358 357 357 359 357 357 359 354 352 351 353 350 350 354 355 353 356 356 356 358 357 354 347 342 341 343 341 343 336 332 329 325 324 325 325
341 343 346 349 349 350 355 357 360 359 359 360 360 355 358 358 354 356 353 354 359 356 354 355 356 358 360 359 356 352 344 343 343 343 342 342 336 333 329 328 325 324 327
339 342 345 348 349 348 350 355 357 360 360 360 361 359 354 359 361 352 352 359 357 356 355 356 357 358 358 358 355 349 344 343 343 343 343 337 333 330 328 328 328 323 322
340 341 343 346 349 348 349 351 355 359 360 360 359 361 359 354 357 364 359 353 357 359 354 353 358 358 357 355 351 347 345 343 343 344 342 336 334 330 329 330 328 327 324
342 341 343 345 347 349 349 350 351 357 359 360 359 360 362 360 355 355 365 364 355 354 357 360 359 358 357 353 348 347 344 343 343 343 335 333 332 331 330 330 328 328 325
343 342 342 345 346 347 348 348 350 354 359 361 362 361 363 365 363 359 358 358 359 357 358 359 358 358 357 351 348 347 342 344 345 342 336 333 333 331 331 330 329 323 325
343 344 342 344 347 348 349 348 348 351 357 361 362 365 364 364 367 367 364 362 362 359 362 361 359 357 355 349 347 346 344 344 343 339 335 334 332 331 331 331 324 322 327
336 339 343 343 344 348 350 350 350 350 356 362 364 366 366 367 367 367 368 367 364 367 364 364 361 358 354 347 347 346 344 345 340 336 333 333 332 332 329 325 323 325 324
338 340 346 350 345 344 347 350 351 352 353 360 365 367 367 367 368 368 369 369 369 365 366 365 363 360 352 347 346 347 346 342 338 334 334 333 333 330 325 323 324 323 317
340 343 347 347 354 347 345 346 349 352 353 355 363 366 367 368 368 370 370 370 368 367 365 365 363 356 351 347 348 346 346 340 336 335 334 333 332 328 324 324 323 318 317
344 348 348 349 353 360 354 348 348 350 352 356 357 366 366 369 369 370 370 369 367 367 366 364 359 355 349 349 347 346 342 337 335 334 334 333 331 327 325 324 321 315 318
338 345 347 350 353 362 362 359 352 351 352 355 361 367 368 369 371 370 369 367 366 366 364 360 356 351 350 348 346 344 337 334 333 332 333 332 329 326 324 321 316 310 315
341 342 352 355 360 360 359 363 364 359 360 363 368 369 369 369 368 368 367 365 364 363 359 356 352 351 347 346 338 337 334 330 328 331 333 331 328 324 319 312 307 311 313
341 345 355 359 363 361 359 360 365 368 368 369 369 369 369 368 368 366 364 363 362 360 357 354 351 348 341 336 336 333 326 330 332 334 332 324 321 312 306 306 310 310 310
338 338 350 364 362 363 359 362 366 368 368 368 368 368 367 368 366 365 364 361 358 355 353 350 348 344 339 337 334 329 330 329 324 322 320 316 311 305 307 309 310 310 310
345 346 365 365 364 363 361 366 366 367 369 370 369 368 367 365 363 360 359 356 354 352 349 347 344 342 340 336 334 327 329 327 321 320 316 311 307 308 308 308 308 309 309
360 365 366 369 367 364 365 368 368 368 367 367 364 361 359 357 357 356 356 354 351 348 346 343 341 340 338 336 333 328 326 322 316 318 314 310 308 308 308 309 309 306 308
365 367 369 369 369 368 367 366 363 364 363 360 358 356 354 354 355 355 353 348 347 345 343 342 340 336 334 333 331 326 321 316 316 315 312 311 308 308 309 310 307 306 307
363 361 360 359 359 362 363 362 360 359 358 358 357 355 355 354 353 352 348 346 345 343 342 342 338 332 332 332 328 321 317 317 316 312 311 312 311 308 308 309 306 306 308
358 358 357 356 357 359 360 360 359 357 358 356 356 355 354 351 349 346 345 346 344 345 343 341 339 335 330 332 323 320 319 315 309 311 311 309 308 307 307 309 306 306 307
355 355 354 355 355 356 356 356 357 356 356 354 353 352 351 348 342 339 334 335 338 340 340 340 338 335 334 331 322 321 314 307 309 311 309 308 308 307 306 307 307 305 305

GFSMW_925_thetae_174.txt.gz
Theta_e
350 350 350 349 348 348 350 350 350 349 349 348 344 345 346 346 346 344 344 351 352 350 348 349 350 349 352 351 352 352 351 350 341 337 336 337 337 336 333 335 337 332 330
351 350 350 349 349 348 350 349 349 349 349 349 347 345 344 345 344 345 348 350 352 353 350 348 350 348 349 354 354 353 352 349 341 337 338 335 338 336 334 336 332 329 328
351 349 350 349 349 349 349 350 349 349 350 349 348 350 351 349 349 350 350 350 350 352 351 351 351 348 349 352 355 352 352 349 342 337 340 337 337 336 337 336 329 327 325
346 349 350 349 351 352 349 350 351 351 350 350 349 351 352 353 351 349 351 351 350 353 352 352 350 349 350 353 353 355 353 348 343 337 341 340 338 336 335 330 328 326 325
346 346 349 350 352 353 353 352 352 354 355 354 353 353 354 353 354 354 353 352 353 354 354 352 352 351 353 353 354 357 353 348 342 340 341 339 341 333 330 324 325 326 325
344 345 347 349 351 354 354 353 353 354 355 356 356 354 354 354 353 355 354 354 352 354 353 352 353 354 354 353 357 358 354 350 342 341 342 342 336 332 328 322 322 324 326
343 343 347 347 349 351 355 356 355 355 354 355 355 356 355 354 353 353 352 352 352 352 351 353 354 355 353 355 356 355 353 348 341 341 342 342 339 333 328 326 324 323 326
341 341 346 348 349 351 353 355 356 356 355 356 356 355 356 355 357 357 353 351 352 351 353 356 355 354 354 357 357 354 351 345 341 341 343 342 337 331 328 328 327 322 321
340 340 343 347 348 350 352 354 355 356 355 356 356 357 356 355 354 358 357 353 353 356 358 356 355 355 356 358 358 353 349 343 337 339 344 343 337 332 330 329 329 325 323
339 339 341 346 347 348 350 353 354 356 356 356 357 357 357 356 355 353 358 359 356 352 352 356 358 356 357 359 355 349 346 342 343 340 342 336 333 331 331 331 330 329 323
339 338 340 343 347 347 347 349 353 354 356 356 356 357 357 357 356 354 351 354 358 358 361 356 355 357 359 358 352 348 345 344 342 344 336 335 333 332 331 331 331 324 322
340 338 338 341 344 346 346 346 348 352 354 356 357 357 356 357 357 357 354 352 350 352 362 360 359 359 358 356 351 347 347 343 342 342 340 334 333 332 331 331 326 323 324
341 339 337 339 342 344 346 346 347 348 352 355 357 358 357 357 360 360 359 358 357 357 359 359 360 361 358 354 350 347 346 344 344 342 337 334 332 332 331 326 323 323 322
338 337 338 338 341 343 344 346 346 347 349 354 357 357 360 359 360 362 363 362 362 363 364 364 363 361 358 354 349 347 346 345 339 338 334 333 332 332 328 324 324 322 318
335 338 340 339 338 343 345 345 346 346 347 354 357 358 359 362 363 363 363 363 364 365 366 365 364 360 356 352 347 346 347 343 341 336 334 333 332 331 326 324 322 318 314
336 340 343 341 339 340 342 345 347 347 348 352 357 359 361 363 364 365 365 366 366 367 368 365 362 361 355 351 348 347 346 344 338 334 333 334 332 328 326 322 318 311 314
336 338 342 344 347 351 343 342 344 348 350 350 354 360 363 365 366 366 367 368 369 366 362 362 364 359 354 349 348 347 345 338 335 334 333 332 330 328 322 315 307 309 310
336 337 338 339 347 356 350 347 344 346 350 351 353 359 364 366 367 367 368 369 368 365 363 364 361 356 350 349 347 344 339 334 332 331 332 332 329 322 309 307 309 310 309
334 334 340 346 355 358 361 360 354 349 350 353 358 362 365 367 367 368 369 367 366 364 363 361 356 350 347 344 340 334 331 328 330 332 331 323 315 307 308 309 309 310 308
337 342 349 354 358 359 362 364 364 361 361 363 365 366 366 367 369 368 365 364 362 359 357 354 353 350 347 338 334 330 329 331 328 319 315 310 307 308 308 308 309 308 307
335 345 358 357 358 360 361 364 365 364 366 367 367 367 367 367 366 364 360 360 359 356 353 351 347 344 339 334 331 328 329 324 321 318 312 307 308 307 308 309 307 306 307
352 359 360 360 361 361 361 363 364 367 367 367 367 366 365 363 362 361 358 356 355 353 349 345 337 334 334 334 330 327 326 322 320 317 311 308 308 308 309 307 306 307 307
361 363 362 362 363 363 363 362 363 366 366 365 363 363 362 361 358 356 356 353 352 349 344 341 337 333 333 332 330 325 322 317 317 312 312 311 309 308 309 306 306 307 307
357 359 360 359 360 363 363 363 362 365 362 357 355 355 355 354 354 353 352 350 347 344 342 339 335 332 331 332 327 321 316 316 315 310 312 311 307 309 308 306 306 306 306
356 357 358 358 359 360 360 361 361 361 356 354 353 351 350 350 347 346 346 346 345 343 342 340 338 333 331 332 328 322 318 314 311 312 309 308 307 307 307 307 305 304 304
353 353 354 355 356 358 358 357 356 355 354 351 349 346 344 343 344 343 339 342 343 344 342 341 340 337 335 331 321 318 314 308 310 309 308 307 306 306 306 306 304 305 305